COSMOS 1275 DEB

Satellite information

Favourite Embed

Satellite Type and Status

DEBRISIN ORBIT

Key statistics

Satellite COSMOS 1275 DEB at a glance.

Uptime

16208

Days in orbit

Revolutions

≈ 14.1

Per day

Orbit

LEO

Low Earth Orbit

Inclination

83.2

Latest

Satellite identification and parameters

Extended collection of information and parameters for COSMOS 1275 DEB.

Object identification

Identified? True

Debris? True

Object name: COSMOS 1275 DEB

International designator: 1981-053JJ

Object number (NORAD): 14504

Object ID (CCSDS): 14504

Country: COMMONWEALTH OF INDEPENDENT STATES (CIS)

Current information (Y/N): Y

RCS size: SMALL

Orbital parameters

Period: 102.329 minutes

Inclination: 83.1945 deg

SMA: 7247.038 km

Apoapsis: 884.82 km

Periapsis: 852.985 km

RAAN: 156.7326 deg

Eccentricy: 0.00219639

Argument of periapsis: 44.428 deg

Mean anomaly: 10.0059 deg

Mean motion: 14.07219965 rev/day

Mean motion (dot): 0.00003112 rev/day2

B* drag term: 0.0018439167 1/REarth

Two-line elements (TLE)

Creation date: Oct. 19, 2025, 2:20 a.m.

Reference frame: TEME

Reference center: EARTH

Epoch: Oct. 18, 2025, 3:17 p.m. UTC

TLE line 0: 0 COSMOS 1275 DEB

TLE line 1: 1 14504U 81053JJ 25291.63711819 .00003112 00000-0 18439-2 0 9990

TLE line 2: 2 14504 83.1945 156.7326 0021964 44.4280 10.0059 14.07219965248508

Live tracking on map

Real-time ground track for satellite COSMOS 1275 DEB.

In-orbit conjunctions

A list of the most updated potential collisions computed for object COSMOS 1275 DEB.

Target Orbit TCA Probability of collision Miss distance Type
YAOGAN 11 DEB SSO 2025-08-23 10:17:42 0.0003069615 76.0 (m) DEBRIS
CZ-6A DEB SSO 2025-07-13 18:04:49 0.0001533296 19.0 (m) DEBRIS

Associated space launch

Navigation satellite providing location information for the Tsiklon-B navigation system

COSMOS 1275 DEB was lifted into orbit during the mission ‘Kosmos-3M | Parus 27’, on board a Kosmos-3M space rocket.

The launch took place on June 4, 1981, 3:41 p.m. from 132/2.

For more information about the launch, click the button.

Launch to space Kosmos-3M | Parus 27
Kosmos-3M | Parus 27

Agency: N/A

Status: Launch Successful

Launch date: June 4, 1981, 3:41 p.m. UTC

Rocket: Kosmos-3M

Launch pad: 132/2

Location: Plesetsk Cosmodrome, Russian Federation

...

Latest news about this satellite

There are no fresh news available about this satellite. Check back as we update our databases every day.


Newsletter sign-up

Weekly statistics, charts and insights to help you stay on top of the space industry.